Theta_e
319 318 320 321 321 324 322 321 319 324 318 320 318 317 316 318 319 319 318 320 318 316 319 318 317 318 318 316 318 317 316 315 314 312 311 311 309 310 314 311 311 312 313 313 312 305 303 301 303 309 311 311 311 311 312 311 311 311 311 311 311 311 311
319 318 321 321 322 324 321 323 322 317 320 321 319 318 317 318 319 319 318 317 318 318 318 316 316 317 316 316 316 316 315 315 315 315 312 311 311 310 310 311 312 311 311 311 312 311 306 302 303 304 306 309 310 310 310 311 312 313 312 312 312 312 312
320 319 320 321 319 322 320 321 320 322 322 322 321 318 319 317 318 319 318 318 318 318 320 317 317 317 317 317 317 317 316 315 316 315 313 313 313 312 312 313 309 309 308 308 309 308 308 307 303 303 306 305 304 307 310 310 311 312 313 312 311 311 311
315 317 318 318 319 322 318 318 321 322 323 322 323 322 318 317 319 320 319 318 319 320 318 317 318 317 317 318 317 317 317 316 314 315 315 314 314 312 311 313 312 310 308 307 307 308 307 305 304 305 306 307 306 305 309 311 311 312 313 313 311 310 311
314 314 317 314 314 313 315 318 321 322 320 321 322 323 321 318 320 322 321 320 320 320 318 318 319 319 318 319 318 316 316 317 315 315 314 313 314 312 311 313 315 313 311 310 310 309 308 308 306 305 306 308 307 307 310 311 313 311 312 312 312 311 311
316 314 315 315 314 318 318 316 317 316 318 319 321 318 317 319 320 321 321 322 320 320 319 318 319 319 318 319 317 317 316 315 315 315 314 313 314 312 311 312 315 314 312 312 313 312 311 310 309 306 307 309 306 306 309 309 309 312 312 311 312 312 311
318 318 317 315 316 318 320 319 317 317 316 317 317 317 318 317 320 319 320 321 320 319 319 319 318 319 319 318 317 316 316 317 316 315 314 314 314 315 313 312 312 315 314 314 313 312 311 310 308 307 306 307 308 305 309 308 309 308 309 311 312 311 311
318 320 318 317 317 316 317 318 318 320 319 316 317 319 318 319 319 319 320 320 320 320 319 319 319 319 320 319 317 317 316 317 316 316 314 314 313 313 313 312 313 312 316 315 315 313 313 312 310 308 306 304 305 306 305 307 308 307 308 310 312 311 310
319 319 319 318 320 318 319 316 316 319 319 319 319 320 319 319 320 319 319 319 320 320 319 318 318 317 319 318 318 316 315 316 316 315 314 314 313 313 313 312 312 311 312 317 315 315 314 314 313 311 310 308 304 301 304 303 305 306 309 308 310 312 310
316 316 318 317 317 319 318 320 319 317 320 321 318 319 319 322 321 322 320 320 320 320 320 319 318 317 317 318 316 316 314 316 314 315 315 314 313 313 312 313 311 311 311 314 317 315 316 315 315 313 313 310 308 305 302 301 303 304 306 309 307 309 312
317 315 318 314 315 321 318 323 318 317 317 318 318 318 318 319 320 319 320 319 320 319 319 318 317 317 317 318 317 317 315 316 314 314 315 314 313 313 312 313 311 311 312 311 311 314 316 316 314 315 314 312 312 307 306 302 302 307 306 309 309 308 311
317 317 316 317 319 314 314 317 317 320 318 319 318 320 319 318 320 319 320 318 319 319 318 318 317 316 316 316 317 316 315 315 313 312 314 314 313 312 310 310 310 310 311 310 310 312 312 315 314 314 314 314 312 311 308 307 302 307 311 306 309 311 310
314 314 317 317 317 313 313 313 314 317 318 318 317 319 316 317 316 316 316 316 315 316 315 317 316 314 315 315 315 314 313 312 312 312 313 313 313 312 310 309 309 308 310 309 309 311 311 311 313 312 312 314 314 313 312 309 306 306 311 310 310 310 311
317 316 315 315 317 315 317 316 317 317 318 318 319 316 315 316 314 315 314 315 313 313 313 313 315 314 314 312 313 313 313 312 311 312 312 311 313 311 310 309 308 308 310 308 308 309 310 311 311 312 312 312 313 313 312 310 306 307 311 313 311 311 312
316 317 315 316 316 314 316 318 318 318 317 316 317 314 313 314 316 314 312 312 312 311 311 311 313 313 312 312 312 315 313 311 312 312 312 310 311 312 310 309 308 308 309 308 308 309 310 310 310 310 310 311 311 312 315 312 310 307 307 311 310 313 312
316 315 315 316 314 314 317 317 316 317 315 315 316 315 314 313 312 312 311 311 310 310 309 309 311 311 311 311 310 311 312 311 311 311 310 310 310 310 309 309 308 308 309 308 308 308 309 309 310 309 309 311 311 312 313 313 311 308 307 308 312 312 311
315 315 316 316 314 315 317 317 315 317 316 318 312 318 316 311 310 312 311 310 309 308 307 307 308 309 309 310 310 310 310 310 310 310 311 310 310 309 309 308 308 308 308 307 307 307 308 309 309 308 309 310 311 311 314 315 313 310 309 308 309 310 312
315 314 315 316 314 315 316 317 318 312 316 315 315 315 313 312 311 310 310 308 307 306 306 305 305 305 307 309 310 310 310 310 311 311 311 311 312 310 309 308 308 308 308 307 307 307 307 307 308 308 308 310 311 312 312 314 315 312 312 309 309 312 314
315 314 314 314 314 314 316 316 317 316 314 313 315 313 312 312 312 309 308 308 307 305 304 302 302 302 303 306 308 309 310 310 311 310 310 310 310 310 309 308 308 307 307 307 306 307 307 307 308 307 307 310 311 311 311 311 313 312 312 311 309 310 312
316 315 315 315 316 316 313 314 313 312 316 313 312 312 311 311 313 310 309 308 306 305 302 300 300 300 300 303 304 306 309 310 309 310 310 309 309 309 309 309 308 307 306 307 307 306 306 306 307 307 307 308 310 311 310 310 310 310 308 308 309 309 309
315 315 315 315 313 314 314 315 315 316 315 312 312 310 310 311 312 310 309 308 306 305 301 299 297 298 298 300 302 305 307 309 309 309 310 309 310 309 309 309 308 306 306 307 308 307 306 305 306 307 307 308 309 309 309 309 309 308 308 307 307 307 308
315 313 314 313 313 313 313 313 315 315 316 314 312 311 312 311 310 309 308 308 305 303 300 298 297 297 297 297 300 302 304 308 309 308 308 308 308 308 308 309 308 307 307 309 310 308 309 309 306 305 306 307 307 308 308 308 308 307 307 305 305 307 306
312 313 313 313 312 313 312 314 315 314 312 313 313 313 312 311 309 309 308 307 305 302 298 298 298 297 296 296 299 300 303 307 308 308 307 307 307 307 307 307 310 311 308 307 308 306 306 308 308 307 306 306 306 306 307 307 306 306 306 304 303 303 303
312 311 313 312 312 311 310 313 315 312 312 313 313 312 313 310 310 309 308 307 304 301 298 295 296 292 293 294 297 299 300 306 308 307 306 306 305 305 307 307 307 309 307 305 303 303 304 305 306 306 307 308 308 307 305 305 306 306 305 304 304 303 303
310 311 310 308 310 310 312 313 312 312 313 313 313 314 312 310 310 312 310 306 303 300 298 296 292 292 293 292 295 298 301 306 308 306 305 304 304 304 305 306 306 306 305 303 300 298 301 304 304 306 304 305 305 302 302 304 305 305 305 304 303 303 303
310 309 310 309 310 311 312 311 311 310 310 312 312 311 310 311 310 311 311 305 300 297 297 296 292 292 292 292 292 296 300 305 308 306 304 304 303 302 303 304 305 305 303 304 300 296 297 299 304 308 310 309 312 305 298 298 301 308 307 305 304 303 303
309 309 310 309 310 310 310 310 312 313 311 312 311 310 310 310 311 311 311 307 300 297 295 294 291 292 292 291 291 294 302 307 309 307 304 303 302 301 301 302 302 302 302 300 297 294 295 297 300 306 312 311 310 311 308 304 304 305 308 307 305 304 305
308 309 308 308 310 310 310 311 311 313 314 314 312 311 310 309 311 310 311 309 301 296 294 292 291 291 291 291 291 298 304 311 308 309 307 303 302 301 300 301 301 300 299 298 296 294 294 296 300 308 309 309 309 309 309 308 308 308 309 309 308 307 306
310 308 307 308 309 308 309 310 312 314 313 314 313 311 311 312 310 309 309 309 305 297 294 291 291 290 291 290 293 302 302 306 308 308 306 304 302 300 300 299 299 298 298 296 296 293 294 297 305 307 307 308 308 310 310 308 300 303 310 309 309 308 307
309 307 307 307 308 308 309 310 311 312 311 310 310 310 310 310 309 307 306 305 307 300 294 292 290 290 290 290 295 300 301 305 302 305 306 304 301 299 299 298 297 296 296 294 294 291 292 298 305 304 305 307 308 307 307 310 302 297 298 297 297 297 295
308 308 307 306 307 308 310 311 311 312 311 310 309 309 310 309 306 305 305 304 304 303 295 293 290 290 290 290 295 298 301 304 305 304 306 305 302 299 299 299 298 295 294 294 292 291 291 297 301 302 302 304 304 304 304 305 307 309 301 298 296 296 297
308 308 306 308 309 308 308 309 310 313 312 310 309 309 308 306 306 306 306 306 303 305 299 295 291 290 290 290 293 297 301 302 302 302 302 303 303 299 298 299 299 296 295 293 291 291 292 295 297 302 301 301 301 301 302 302 303 306 307 309 312 307 301
309 309 307 310 308 308 309 309 309 311 311 307 305 307 311 306 307 306 308 305 302 302 302 296 293 290 290 290 290 298 300 299 298 299 301 301 300 301 301 299 298 293 291 291 291 291 291 292 295 301 300 298 298 298 300 299 303 307 308 308 307 307 308
310 310 310 309 308 308 308 308 308 309 308 310 309 309 309 307 306 306 307 305 300 299 300 300 294 289 290 290 290 293 297 296 295 297 300 299 298 298 298 297 297 296 291 291 291 291 291 292 293 301 300 297 297 298 296 298 304 311 306 307 305 305 305
311 311 311 308 308 307 307 307 307 308 309 309 307 307 308 307 305 306 307 306 302 299 298 299 297 291 289 290 290 291 295 296 294 298 300 297 296 297 296 297 297 296 291 291 291 291 291 292 292 300 297 292 292 293 300 306 307 306 305 305 304 304 304
312 308 309 308 307 306 306 306 306 306 309 307 306 305 306 307 306 304 304 305 304 300 298 296 295 295 289 289 290 290 290 293 291 301 298 295 295 296 297 298 298 297 291 291 291 291 291 291 296 297 292 292 293 295 303 306 305 305 304 304 304 303 303
311 311 309 308 307 306 305 305 305 305 306 305 304 304 305 306 305 304 303 303 303 302 298 296 294 296 293 288 289 288 290 290 290 295 298 297 298 297 298 297 297 292 291 291 291 291 291 292 294 292 292 292 296 300 304 304 303 304 303 302 302 302 302
Wind_Speed
2 2 3 2 1 1 2 3 6 2 4 4 5 7 7 6 5 6 5 4 5 7 5 5 6 4 4 5 6 6 7 7 7 7 7 7 7 7 5 5 8 8 5 2 0 1 5 8 10 6 4 7 8 8 7 8 9 10 12 13 13 14 12
3 3 2 2 2 1 3 2 3 6 3 3 4 6 6 6 6 6 7 6 5 5 5 5 7 7 6 6 6 6 7 7 6 6 6 6 7 6 7 6 6 7 7 5 4 3 4 6 8 9 9 6 3 5 7 7 8 8 10 11 11 13 13
2 3 3 2 3 3 2 2 2 1 3 4 3 5 7 6 7 7 7 8 6 6 4 4 6 7 6 5 6 6 6 6 7 5 7 6 5 4 5 3 6 8 7 7 7 8 4 2 7 9 7 10 9 6 5 7 8 8 9 10 11 12 13
5 3 2 4 3 3 3 3 2 2 2 3 4 3 6 6 5 5 6 7 7 5 6 5 4 5 6 5 6 6 5 6 6 6 6 7 5 6 7 3 4 6 5 6 9 8 7 7 8 8 7 8 6 7 6 3 6 7 7 9 12 13 12
5 5 3 3 4 6 4 3 4 3 3 4 3 3 3 5 5 4 4 4 6 5 5 5 4 5 5 5 5 6 6 5 7 7 6 8 7 6 7 5 3 4 6 5 5 6 6 7 6 7 7 6 3 4 3 4 3 7 8 7 8 9 11
4 4 5 3 4 3 4 4 4 5 5 2 3 4 5 5 4 3 4 3 4 5 5 5 4 5 5 4 5 4 5 7 6 8 6 9 8 6 6 6 2 3 4 4 4 5 6 6 5 8 8 5 5 3 3 5 5 3 7 6 5 6 8
3 3 3 4 3 3 2 3 3 4 4 6 4 4 4 6 3 5 5 3 4 5 6 5 6 4 4 4 5 5 5 4 6 6 7 8 8 7 6 5 6 2 2 3 4 5 6 7 8 9 8 7 6 3 2 4 6 6 5 7 5 6 7
3 3 3 2 2 4 4 2 3 2 3 5 4 3 5 4 4 4 6 4 4 5 5 5 5 4 3 4 5 7 5 4 4 6 6 7 9 9 7 7 6 5 1 3 3 5 4 4 5 7 8 8 6 4 3 4 5 8 5 4 7 5 7
3 2 2 2 2 3 2 4 4 3 3 3 4 2 3 3 3 3 5 4 4 4 4 5 5 5 4 5 4 6 6 6 5 5 6 6 8 8 7 7 7 7 8 2 3 3 4 4 4 4 4 4 5 5 5 6 6 6 7 5 5 6 6
3 3 3 1 1 2 2 2 2 3 3 1 3 2 3 2 3 2 3 3 4 4 4 5 6 6 5 5 5 5 7 5 7 6 5 6 7 7 7 7 7 7 8 8 3 3 2 4 2 1 5 5 5 4 5 5 7 5 6 6 5 7 5
2 3 2 3 2 1 1 1 4 3 3 2 3 3 4 3 3 4 3 3 3 4 4 4 5 6 5 5 5 4 5 5 6 6 6 5 6 6 9 6 7 7 7 8 10 7 4 2 5 1 2 2 5 6 4 4 3 3 3 4 4 4 6
2 3 2 2 1 4 2 2 3 2 2 3 3 2 3 3 2 3 3 3 3 3 4 4 4 5 5 5 4 5 5 5 5 7 6 6 5 6 8 8 8 8 9 8 9 9 10 6 6 6 4 3 6 5 6 5 3 3 3 3 3 5 3
3 3 2 2 2 3 5 4 4 3 3 3 4 2 4 3 4 4 3 4 5 5 5 5 5 6 5 5 5 6 6 8 7 7 6 6 5 6 8 9 9 9 9 10 9 9 9 11 7 6 7 5 3 3 4 2 4 4 4 3 2 3 3
2 3 2 2 2 2 1 3 2 3 2 0 2 4 4 3 5 5 6 4 4 5 6 6 4 4 4 6 6 5 6 7 8 6 6 7 5 6 8 9 9 10 9 9 9 9 10 10 10 7 8 7 5 4 5 4 3 2 2 5 4 3 4
3 2 2 2 2 3 2 1 2 2 3 4 3 4 5 6 3 4 6 8 7 7 7 7 6 4 4 5 5 4 5 6 6 6 5 7 6 5 8 9 10 10 9 10 10 10 10 11 9 9 8 9 6 5 4 3 4 3 3 3 4 6 7
3 3 2 2 3 3 1 2 3 2 3 4 4 3 3 4 6 5 5 6 7 7 8 8 7 10 7 6 7 6 6 6 7 7 7 7 8 7 8 8 9 8 8 9 9 9 10 10 9 10 10 8 7 3 4 3 3 5 5 2 2 4 4
3 2 3 2 2 2 1 1 2 2 2 2 3 2 3 4 6 4 5 6 7 8 9 8 9 9 11 10 7 7 6 6 7 6 6 6 7 8 7 8 8 8 8 9 9 9 9 9 9 9 9 9 7 7 2 3 6 5 4 4 5 4 4
3 3 3 2 2 1 1 1 0 3 2 2 2 2 3 4 4 5 5 7 7 8 9 9 9 10 9 9 10 9 6 6 5 6 6 5 6 7 7 7 8 8 8 8 9 9 9 11 10 10 10 8 9 7 6 4 2 3 2 4 5 4 4
3 3 3 3 1 1 1 2 1 2 2 2 2 3 4 3 3 6 7 7 8 8 8 8 9 9 9 10 9 10 8 7 7 6 6 6 6 5 6 7 7 7 8 8 8 9 9 11 10 11 12 10 9 7 6 6 2 1 1 5 4 2 3
4 3 2 2 1 1 2 1 3 3 2 3 3 3 4 4 3 5 6 7 8 8 8 9 8 9 9 9 9 9 9 6 7 6 6 6 7 7 7 7 6 7 7 7 8 8 9 10 9 11 11 10 9 9 9 8 8 4 6 5 5 5 5
4 3 3 2 2 1 1 2 1 2 2 3 3 4 4 4 3 4 6 6 7 7 7 8 9 8 8 8 8 8 10 6 6 5 7 6 5 5 5 6 6 6 8 7 7 7 8 7 8 9 9 9 9 8 8 8 9 8 6 7 7 6 6
3 3 3 3 3 2 2 1 1 2 1 3 3 3 3 4 5 5 6 6 7 7 6 6 6 6 7 8 8 9 9 8 5 5 6 7 7 7 6 5 6 7 11 14 19 16 13 7 5 7 8 9 9 8 8 7 7 7 6 8 8 8 7
5 3 3 3 3 2 2 2 1 2 3 2 2 3 3 3 5 5 5 6 7 6 5 5 8 11 7 5 6 7 8 7 6 6 6 7 6 8 7 7 5 16 17 17 18 18 16 13 5 3 5 6 8 9 8 7 8 7 7 9 9 9 9
4 5 3 3 3 3 3 2 1 3 2 2 2 3 2 4 4 3 5 6 6 6 4 5 11 12 13 12 7 6 8 6 5 6 7 7 7 8 9 8 7 8 13 13 14 17 15 15 13 4 7 7 7 8 8 9 7 8 7 7 7 8 7
6 5 4 5 4 3 2 3 3 3 2 2 2 2 2 3 3 2 3 6 6 5 4 8 11 12 12 13 10 6 6 6 4 5 6 7 7 7 8 8 7 7 8 11 10 11 13 15 15 11 5 7 7 9 9 8 7 7 8 7 7 7 7
6 5 5 4 3 3 2 3 3 4 3 3 3 2 3 2 2 2 2 6 6 6 4 7 10 11 12 13 13 9 6 7 3 4 6 6 6 7 7 7 7 7 8 14 11 10 9 10 12 15 4 6 6 4 11 12 11 8 4 5 4 6 7
7 5 4 4 3 3 3 3 2 2 3 2 2 3 3 2 2 2 2 4 7 5 5 7 10 12 11 12 13 10 5 5 3 3 5 5 5 5 6 6 7 7 7 9 9 10 10 9 8 8 3 2 2 7 8 10 9 10 7 3 5 6 6
7 7 6 5 4 4 3 2 2 2 1 2 2 2 3 3 2 2 2 3 6 5 4 7 10 12 12 13 14 10 7 1 3 2 3 6 4 5 5 6 6 6 7 8 9 11 9 9 7 5 5 6 4 5 3 4 4 3 3 4 4 5 3
6 6 6 5 5 5 4 3 2 2 2 2 2 2 2 2 2 3 2 3 4 5 5 8 10 11 12 13 13 6 7 5 2 2 3 7 5 5 5 5 6 6 7 8 13 18 14 10 6 8 7 6 4 3 3 1 2 2 3 1 3 2 3
7 7 7 6 6 5 4 3 2 2 2 3 2 2 2 2 2 3 3 3 3 6 5 7 10 11 11 13 10 5 6 3 4 3 3 7 6 6 6 6 7 7 6 8 13 16 17 15 8 9 8 5 4 5 6 5 5 5 6 6 5 4 2
8 7 7 7 6 5 4 3 2 2 2 2 2 2 2 2 3 3 3 3 3 4 4 6 10 10 11 13 9 5 6 4 3 3 3 7 7 7 9 15 11 7 6 7 12 14 16 13 8 8 8 7 6 6 6 7 6 6 6 10 3 7 5
7 6 7 6 6 6 4 4 3 2 2 2 2 2 2 3 3 3 3 2 4 4 5 5 9 9 10 12 9 5 6 6 6 7 6 3 8 6 5 9 13 9 6 8 12 13 15 11 7 7 8 7 7 6 6 8 7 7 7 3 2 7 2
7 6 6 5 5 5 4 4 4 2 2 3 3 2 1 3 2 3 2 3 4 4 3 4 6 8 9 10 11 6 4 6 6 6 6 4 5 4 4 6 7 10 11 11 12 13 13 13 8 6 5 6 6 7 7 8 8 6 4 6 5 7 5
7 6 5 6 5 5 4 5 4 3 3 3 2 3 3 3 3 2 2 3 4 3 2 3 5 6 6 7 9 8 4 5 4 5 5 6 5 6 5 5 4 7 10 10 11 12 12 13 11 6 5 5 4 8 8 5 7 8 5 5 7 6 5
7 5 5 7 6 5 4 5 4 4 3 2 3 3 2 2 3 2 2 3 5 4 3 4 3 3 4 5 6 7 4 4 4 4 5 6 5 5 4 3 3 5 9 9 10 11 12 11 14 6 9 12 14 15 7 2 4 5 5 5 5 4 4
8 9 7 7 7 5 5 5 5 4 3 4 3 3 3 2 3 3 4 4 5 5 3 2 2 3 1 2 3 4 5 5 9 6 5 5 4 2 2 2 2 5 9 10 9 11 11 11 8 7 14 14 14 13 10 5 6 5 6 5 4 5 4
9 6 8 7 7 6 6 5 5 4 4 5 4 4 4 2 3 3 3 4 5 5 4 3 3 5 3 3 3 2 4 6 6 4 3 2 1 0 0 1 3 7 9 10 10 9 10 8 6 10 11 13 12 11 7 7 7 6 5 5 6 5 4
Wind_Direction
36 338 93 82 271 80 68 6 334 54 63 10 5 0 29 39 10 7 24 35 5 12 353 14 344 357 8 359 6 5 10 359 353 349 348 355 356 344 15 6 348 338 340 335 252 50 318 322 338 349 1 9 357 7 6 13 8 6 5 6 7 8 7
13 9 17 124 341 0 91 53 4 355 34 32 22 359 10 39 18 16 9 19 20 10 351 12 356 3 12 2 7 5 14 360 349 358 356 347 353 353 354 358 338 348 338 329 348 19 347 333 335 347 345 4 350 13 7 7 9 11 10 10 10 7 14
78 55 341 318 127 303 79 105 61 45 351 13 43 19 347 34 21 18 11 9 16 359 1 15 11 2 353 6 7 7 5 5 350 360 354 340 355 345 353 347 360 355 359 350 358 356 347 357 336 340 346 351 356 359 359 7 11 13 14 12 12 18 17
13 82 17 341 338 108 58 12 39 76 18 37 2 55 351 21 27 18 17 7 2 355 353 12 22 1 348 6 4 0 347 10 352 348 350 344 352 352 349 29 32 17 353 348 348 350 359 349 341 344 342 3 359 344 348 2 16 20 25 23 20 16 21
25 13 45 35 345 21 41 23 352 18 49 5 28 359 16 15 8 21 14 8 347 349 352 359 15 1 358 6 5 359 342 360 359 350 349 346 355 359 359 1 66 22 8 356 344 335 1 342 351 328 339 341 350 331 333 360 17 30 23 37 37 30 18
37 29 13 52 15 6 22 20 11 4 352 5 27 28 359 356 11 0 353 5 352 346 356 350 6 12 2 11 357 351 352 0 358 349 349 351 347 4 359 346 18 43 12 334 343 343 350 355 350 337 340 340 333 322 326 23 10 16 26 35 51 44 33
67 47 42 20 7 353 338 93 34 354 9 342 37 10 13 338 17 354 334 6 360 358 353 348 355 10 4 357 357 342 2 351 0 351 349 349 346 352 358 353 351 44 10 336 352 349 357 359 356 352 336 340 337 8 293 19 22 24 13 26 40 55 50
21 59 64 46 11 345 345 12 98 2 25 351 0 47 341 341 0 353 323 354 358 353 354 344 346 356 359 354 5 345 358 350 10 357 350 350 351 349 2 360 351 352 4 347 359 356 347 3 4 358 351 344 345 344 24 5 19 37 8 33 19 50 57
45 36 84 345 93 330 3 357 15 28 48 4 324 23 349 333 341 347 321 346 353 348 353 345 350 347 356 359 14 353 352 352 355 8 354 354 350 348 350 5 0 357 352 339 357 0 345 333 33 336 344 335 336 352 351 21 12 21 23 20 20 26 66
82 55 340 63 65 131 324 63 24 4 3 12 332 16 320 328 323 332 314 338 348 345 348 358 350 351 357 359 2 0 353 349 357 356 354 0 353 348 347 8 5 2 359 350 330 351 336 335 82 263 21 333 316 350 347 21 10 358 16 22 24 11 42
42 48 30 13 3 5 57 33 89 353 3 355 352 5 299 5 317 354 305 1 343 341 356 10 355 343 356 355 360 355 343 343 7 357 353 356 358 352 350 8 9 2 358 356 351 340 338 329 356 10 80 34 346 2 336 14 23 0 1 9 25 30 8
66 64 27 15 12 10 43 19 84 174 19 355 345 327 324 0 341 333 331 357 335 9 351 17 356 345 357 348 359 351 334 348 21 359 349 354 357 3 357 6 14 1 360 358 358 352 356 344 15 351 8 22 15 12 345 350 21 27 355 13 12 43 33
58 41 49 356 40 39 7 25 7 355 95 9 322 344 339 22 335 337 16 347 359 11 358 9 8 355 345 353 350 3 352 349 18 4 347 354 2 9 8 6 20 10 3 3 354 356 358 352 354 2 358 9 36 359 5 14 31 354 359 1 25 29 13
70 79 47 15 54 69 33 6 9 316 43 54 359 336 5 350 12 344 357 351 15 15 353 9 4 347 357 356 358 360 353 355 14 354 357 351 11 15 19 11 17 15 6 12 357 357 355 350 348 360 0 0 14 6 12 349 10 334 345 3 351 17 351
83 70 60 27 15 77 41 30 316 7 11 344 56 333 25 333 18 12 5 348 26 20 1 10 348 333 23 352 355 356 355 354 6 345 10 348 9 20 32 17 19 15 8 13 5 3 356 346 356 358 358 354 357 12 350 351 339 9 25 7 356 352 6
129 110 88 57 27 47 41 20 345 32 29 342 30 354 23 353 350 31 9 7 30 17 14 3 355 354 6 4 356 7 352 9 355 357 12 357 10 20 34 28 21 20 7 10 8 5 357 351 356 360 350 344 345 24 343 357 349 11 14 24 4 13 21
124 132 113 99 80 36 22 47 341 28 44 13 8 339 26 25 342 28 20 31 30 27 19 7 1 3 359 353 359 4 0 10 353 6 357 356 18 29 31 30 25 17 11 7 6 3 1 357 359 358 344 342 343 10 348 352 31 31 343 2 55 22 337
125 110 84 81 65 62 18 85 75 24 20 19 10 347 39 37 354 28 30 34 34 32 28 15 7 3 358 356 354 353 359 359 358 354 358 358 27 42 33 36 26 16 7 7 0 0 358 357 3 1 348 355 347 359 357 351 42 89 338 29 29 7 356
135 128 143 130 109 101 82 350 68 81 17 11 12 24 23 42 6 35 35 42 38 40 33 24 13 4 358 354 354 347 340 4 351 2 6 359 12 37 49 38 34 22 11 8 359 356 356 353 357 4 358 354 351 355 350 348 356 79 49 46 62 38 9
140 137 121 135 188 120 92 8 34 54 39 17 15 30 22 22 14 56 48 47 48 44 38 26 13 5 359 355 347 343 335 13 352 4 354 4 17 20 35 45 36 28 15 10 2 357 354 353 353 0 359 355 353 1 356 360 352 27 48 47 37 31 38
150 143 141 140 111 98 123 112 76 73 30 52 17 24 31 6 26 53 66 58 58 52 37 26 12 3 357 354 346 340 336 348 355 7 354 6 13 20 29 59 50 40 21 13 9 353 358 353 346 355 358 358 354 359 3 4 11 9 31 41 28 29 29
130 146 169 134 130 136 110 96 79 93 52 79 49 11 31 24 29 35 63 67 63 56 43 24 21 357 346 348 348 340 338 325 1 6 7 2 14 9 14 56 72 48 33 21 13 8 359 354 348 350 352 2 360 358 1 12 11 12 23 35 26 18 22
165 160 153 159 127 142 127 138 155 103 77 52 68 31 29 43 28 31 51 65 74 61 38 26 1 1 14 358 334 337 333 323 13 7 11 6 13 8 360 14 45 51 34 22 12 2 351 355 356 330 330 353 10 10 6 6 14 14 22 40 31 19 15
152 171 158 128 168 173 134 136 106 97 86 66 53 73 28 45 51 24 46 65 72 69 40 13 359 2 359 5 1 336 333 322 17 19 10 18 10 14 351 4 4 44 40 22 8 355 348 345 351 301 310 332 3 26 17 13 12 20 27 44 37 25 20
174 155 165 169 172 121 164 165 123 110 113 104 86 83 61 52 41 38 54 72 71 65 51 10 9 2 1 355 358 338 324 325 20 30 29 23 17 12 1 351 11 14 37 31 11 354 343 342 339 337 275 292 323 30 40 38 15 22 29 36 40 33 25
164 162 181 153 133 177 170 143 139 129 120 137 132 85 77 53 54 29 35 85 80 61 41 13 8 8 359 355 347 347 323 308 32 51 49 40 27 20 5 1 5 22 18 17 12 352 342 333 332 323 266 284 274 56 44 30 30 32 25 37 43 36 28
160 168 150 144 165 165 171 117 123 124 133 112 104 111 92 73 59 54 26 85 93 70 41 1 12 8 4 353 343 334 295 297 46 66 75 61 49 38 21 12 9 14 15 15 9 356 336 331 321 322 340 236 66 45 45 45 31 24 22 33 41 50 36
166 156 158 160 177 157 128 146 172 167 129 92 93 89 99 117 94 63 30 75 102 78 42 10 20 11 3 352 340 325 323 313 75 44 90 90 66 48 42 29 23 14 13 8 5 350 339 326 307 324 358 11 29 37 34 38 30 22 3 3 42 67 51
161 160 161 163 170 146 146 177 161 132 137 123 104 115 127 120 98 81 57 47 101 94 62 23 25 15 1 358 338 335 338 320 40 82 63 98 71 56 48 40 34 24 9 6 353 348 348 331 318 12 352 14 21 34 50 45 332 335 311 18 38 46 67
165 173 162 170 166 149 156 154 148 179 159 156 157 133 124 106 92 84 56 51 28 94 62 27 30 17 5 360 351 335 331 317 40 342 104 107 88 66 56 52 53 29 12 6 351 349 352 345 357 6 352 10 19 28 24 359 279 260 280 278 150 122 170
170 181 164 176 160 144 153 150 153 183 153 138 152 157 155 112 103 87 86 78 356 88 87 45 35 20 9 2 351 337 321 340 45 355 354 110 106 93 75 70 59 38 17 357 348 349 355 356 352 7 358 3 12 20 1 350 344 325 242 264 229 156 201
173 182 175 174 144 150 160 161 143 213 160 164 149 201 170 131 113 105 107 103 49 59 99 63 40 25 13 8 1 338 348 10 11 1 341 75 130 125 104 69 56 37 16 351 348 350 352 359 347 11 0 5 359 352 347 335 326 321 325 5 322 129 237
166 177 187 144 146 156 158 146 152 185 192 174 188 174 186 117 116 114 126 100 72 36 67 81 44 34 17 10 6 355 14 26 13 348 328 1 42 55 66 59 48 24 3 354 348 347 346 350 354 345 11 2 349 323 332 325 303 298 318 2 33 56 101
160 170 172 140 157 159 159 151 157 178 211 210 126 93 78 108 121 138 114 108 101 75 38 90 75 45 19 18 13 10 38 38 2 339 329 29 34 37 34 38 37 6 354 347 343 339 339 338 338 339 2 345 313 282 292 297 297 334 9 7 43 53 45
145 171 158 153 159 167 159 155 169 167 214 90 107 122 144 166 157 126 134 131 122 113 64 68 103 59 31 25 34 28 41 40 1 323 9 36 34 40 25 25 22 347 339 337 334 331 328 329 327 337 338 327 325 334 332 257 324 357 11 20 47 43 28
162 188 160 162 158 166 162 162 170 177 178 139 152 160 182 204 147 156 166 167 136 136 130 98 111 124 129 22 41 55 49 44 5 17 32 43 40 34 36 339 337 339 329 320 323 323 318 316 317 332 327 336 334 343 355 30 10 13 12 18 33 29 27
189 187 152 157 165 163 166 164 170 186 151 161 167 174 190 195 183 178 180 159 156 144 142 144 191 181 151 223 293 354 43 40 42 10 47 58 77 352 301 311 297 310 310 312 309 309 306 306 302 312 321 329 357 9 1 13 19 5 1 21 21 10 11